Weather History for Viroqua, WI

Change the Weather History Date:

Sunday, March 17, 2013

  Actual Average (KLSE) Record (KLSE)
Temperature  
Mean Temperature 21 °F 35 °F  
Max Temperature 30 °F 44 °F 83 °F (2012)
Min Temperature 12 °F 26 °F -7 °F (1941)
Degree Days  
Heating Degree Days 44 30  
Month to date heating degree days 572  
Since 1 July heating degree days 6081  
Cooling Degree Days 0 0  
Month to date cooling degree days 0  
Year to date cooling degree days 0  
Moisture  
Dew Point 14 °F    
Average Humidity 70    
Maximum Humidity 86    
Minimum Humidity 55    
Precipitation  
Precipitation 0.00 in 0.07 in 1.02 in (1966)
Month to date precipitation 0.99  
Year to date precipitation 3.16  
Snow  
Snow 0.00 in 0.30 in 8.40 in (1965)
Month to date snowfall 4.8  
Since 1 July snowfall 39.3  
Snow Depth -    
Sea Level Pressure  
Sea Level Pressure 30.09 in    
Wind  
Wind Speed 10 mph (East)    
Max Wind Speed 15 mph    
Max Gust Speed 21 mph    
Visibility 10 miles    
Events      
T = Trace of Precipitation, MM = Missing Value Source: NWS Daily Summary

Daily Weather History Graph

Daily Weather History Graph

Search for Another Location

Airport:

Trip Planner

Search our weather history database for the weather conditions in past years. The results will help you decide how hot, cold, wet, or windy it might be!

Date:

Astronomy

Mar. 17, 2013 Rise Set
Actual Time 7:11 AM CDT 7:12 PM CDT
Civil Twilight 6:43 AM CDT 7:41 PM CDT
Nautical Twilight 6:09 AM CDT 8:14 PM CDT
Astronomical Twilight 5:35 AM CDT 8:48 PM CDT
Moon 10:14 AM CDT (3/17) 12:30 AM CDT (3/17)
Length of Visible Light 12h 58m
Length of Day
12h 00m
Waxing Crescent, 31% of the Moon is Illuminated
Mar 17
Waxing Crescent
Mar 19
First Quarter
Mar 27
Full
Apr 2
Last Quarter
Apr 10
New

Hourly Weather History & Observations

Time (CDT) Temp. Windchill Dew Point Humidity Pressure Visibility Wind Dir Wind Speed Gust Speed Precip Events Conditions
12:15 AM 21.2 °F 13.6 °F 15.8 °F 80% 30.14 in 10.0 mi WNW 5.8 mph - N/A   Clear
12:35 AM 19.4 °F 11.5 °F 15.8 °F 86% 30.15 in 10.0 mi NNW 5.8 mph - N/A   Clear
12:55 AM 21.2 °F 9.5 °F 12.2 °F 68% 30.15 in 10.0 mi NNW 11.5 mph - N/A   Clear
1:15 AM 19.4 °F 9.5 °F 10.4 °F 68% 30.15 in 10.0 mi NNW 8.1 mph - N/A   Clear
1:35 AM 19.4 °F 8.6 °F 10.4 °F 68% 30.15 in 10.0 mi NNW 9.2 mph - N/A   Clear
1:55 AM 19.4 °F 9.5 °F 10.4 °F 68% 30.16 in 10.0 mi North 8.1 mph - N/A   Clear
2:15 AM 17.6 °F 9.3 °F 10.4 °F 73% 30.16 in 10.0 mi North 5.8 mph - N/A   Clear
2:35 AM 17.6 °F 6.4 °F 10.4 °F 73% 30.17 in 10.0 mi North 9.2 mph - N/A   Clear
2:55 AM 17.6 °F 6.4 °F 10.4 °F 73% 30.17 in 10.0 mi North 9.2 mph - N/A   Clear
3:15 AM 17.6 °F 6.4 °F 10.4 °F 73% 30.16 in 10.0 mi North 9.2 mph - N/A   Clear
3:55 AM 15.8 °F 4.2 °F 8.6 °F 73% 30.16 in 10.0 mi North 9.2 mph - N/A   Clear
4:15 AM 15.8 °F 5.1 °F 8.6 °F 73% 30.15 in 10.0 mi North 8.1 mph - N/A   Clear
4:35 AM 14.0 °F 1.2 °F 8.6 °F 79% 30.14 in 10.0 mi NNE 10.4 mph - N/A   Clear
4:55 AM 14.0 °F 0.5 °F 8.6 °F 79% 30.14 in 10.0 mi NNE 11.5 mph - N/A   Clear
5:15 AM 14.0 °F 1.2 °F 8.6 °F 79% 30.14 in 10.0 mi NE 10.4 mph - N/A   Clear
5:35 AM 14.0 °F 1.2 °F 8.6 °F 79% 30.14 in 10.0 mi NE 10.4 mph - N/A   Clear
5:55 AM 14.0 °F 2.0 °F 6.8 °F 73% 30.15 in 10.0 mi NE 9.2 mph - N/A   Clear
6:15 AM 12.2 °F 0.7 °F 6.8 °F 79% 30.16 in 10.0 mi NE 8.1 mph - N/A   Clear
6:35 AM 12.2 °F 0.7 °F 5.0 °F 73% 30.16 in 10.0 mi ENE 8.1 mph - N/A   Clear
6:55 AM 12.2 °F 1.7 °F 5.0 °F 73% 30.17 in 10.0 mi East 6.9 mph - N/A   Clear
7:15 AM 12.2 °F -0.2 °F 5.0 °F 73% 30.17 in 10.0 mi ENE 9.2 mph - N/A   Clear
7:35 AM 12.2 °F 0.7 °F 5.0 °F 73% 30.18 in 10.0 mi East 8.1 mph - N/A   Clear
8:15 AM 14.0 °F 2.9 °F 6.8 °F 73% 30.20 in 10.0 mi East 8.1 mph - N/A   Clear
8:35 AM 14.0 °F 1.2 °F 6.8 °F 73% 30.20 in 10.0 mi East 10.4 mph - N/A   Clear
8:55 AM 15.8 °F 2.7 °F 8.6 °F 73% 30.20 in 10.0 mi East 11.5 mph - N/A   Clear
9:15 AM 17.6 °F 5.0 °F 8.6 °F 68% 30.20 in 10.0 mi East 11.5 mph 19.6 mph N/A   Clear
9:35 AM 17.6 °F 3.2 °F 8.6 °F 68% 30.20 in 10.0 mi East 15.0 mph - N/A   Clear
9:55 AM 17.6 °F 4.3 °F 8.6 °F 68% 30.20 in 10.0 mi ESE 12.7 mph - N/A   Clear
10:15 AM 19.4 °F 7.2 °F 10.4 °F 68% 30.20 in 10.0 mi ESE 11.5 mph - N/A   Clear
10:35 AM 19.4 °F 6.0 °F 10.4 °F 68% 30.19 in 10.0 mi East 13.8 mph - N/A   Clear
10:55 AM 21.2 °F 8.9 °F 10.4 °F 63% 30.19 in 10.0 mi ESE 12.7 mph - N/A   Clear
11:15 AM 21.2 °F 10.9 °F 12.2 °F 68% 30.19 in 10.0 mi ESE 9.2 mph - N/A   Clear
11:55 AM 23.0 °F 11.7 °F 12.2 °F 63% 30.17 in 10.0 mi ESE 11.5 mph - N/A   Clear
12:15 PM 24.8 °F 14.6 °F 14.0 °F 64% 30.17 in 10.0 mi ESE 10.4 mph - N/A   Clear
12:55 PM 26.6 °F 17.5 °F 14.0 °F 59% 30.14 in 10.0 mi SE 9.2 mph - N/A   Clear
1:15 PM 26.6 °F 18.2 °F 14.0 °F 59% 30.13 in 10.0 mi East 8.1 mph - N/A   Clear
1:35 PM 28.4 °F 19.1 °F 14.0 °F 55% 30.11 in 10.0 mi East 10.4 mph - N/A   Clear
1:55 PM 28.4 °F 19.1 °F 14.0 °F 55% 30.10 in 10.0 mi SE 10.4 mph - N/A   Clear
2:15 PM 28.4 °F 18.5 °F 15.8 °F 59% 30.10 in 10.0 mi ESE 11.5 mph - N/A   Clear
2:35 PM 28.4 °F 20.4 °F 15.8 °F 59% 30.09 in 10.0 mi ESE 8.1 mph - N/A   Clear
2:55 PM 30.2 °F 21.9 °F 15.8 °F 55% 30.07 in 10.0 mi SE 9.2 mph - N/A   Clear
3:15 PM 30.2 °F 21.3 °F 15.8 °F 55% 30.07 in 10.0 mi ESE 10.4 mph - N/A   Clear
3:35 PM 30.2 °F 19.8 °F 17.6 °F 60% 30.06 in 10.0 mi East 13.8 mph 17.3 mph N/A   Clear
3:55 PM 30.2 °F 19.8 °F 17.6 °F 60% 30.05 in 10.0 mi ESE 13.8 mph - N/A   Clear
4:15 PM 30.2 °F 20.2 °F 17.6 °F 60% 30.04 in 10.0 mi ESE 12.7 mph - N/A   Clear
4:35 PM 30.2 °F 20.8 °F 17.6 °F 60% 30.03 in 10.0 mi ESE 11.5 mph - N/A   Clear
4:55 PM 30.2 °F 19.3 °F 17.6 °F 60% 30.03 in 10.0 mi ESE 15.0 mph - N/A   Clear
5:15 PM 30.2 °F 20.2 °F 19.4 °F 64% 30.02 in 10.0 mi ESE 12.7 mph - N/A   Clear
5:35 PM 30.2 °F 19.3 °F 19.4 °F 64% 30.02 in 10.0 mi ESE 15.0 mph 20.7 mph N/A   Clear
5:55 PM 30.2 °F 21.3 °F 19.4 °F 64% 30.01 in 10.0 mi ESE 10.4 mph 17.3 mph N/A   Clear
6:15 PM 28.4 °F 17.5 °F 19.4 °F 69% 30.00 in 10.0 mi ESE 13.8 mph 20.7 mph N/A   Clear
6:35 PM 28.4 °F 18.5 °F 19.4 °F 69% 30.00 in 10.0 mi ESE 11.5 mph 17.3 mph N/A   Clear
6:55 PM 28.4 °F 18.0 °F 19.4 °F 69% 29.99 in 10.0 mi ESE 12.7 mph - N/A   Clear
7:15 PM 26.6 °F 16.8 °F 19.4 °F 74% 29.99 in 10.0 mi ESE 10.4 mph - N/A   Clear
7:35 PM 26.6 °F 16.8 °F 19.4 °F 74% 30.00 in 10.0 mi ESE 10.4 mph - N/A   Clear
7:55 PM 26.6 °F 16.8 °F 19.4 °F 74% 30.00 in 10.0 mi ESE 10.4 mph - N/A   Clear
8:15 PM 26.6 °F 15.7 °F 19.4 °F 74% 29.99 in 10.0 mi ESE 12.7 mph 18.4 mph N/A   Clear
8:35 PM 26.6 °F 16.2 °F 19.4 °F 74% 29.98 in 10.0 mi ESE 11.5 mph - N/A   Clear
8:55 PM 26.6 °F 16.2 °F 19.4 °F 74% 29.97 in 10.0 mi ESE 11.5 mph - N/A   Clear
9:15 PM 24.8 °F 13.4 °F 19.4 °F 80% 29.97 in 10.0 mi ESE 12.7 mph - N/A   Clear
9:35 PM 24.8 °F 12.9 °F 19.4 °F 80% 29.96 in 10.0 mi ESE 13.8 mph 18.4 mph N/A   Clear
9:55 PM 24.8 °F 13.4 °F 19.4 °F 80% 29.96 in 10.0 mi ESE 12.7 mph - N/A   Clear
10:15 PM 23.0 °F 10.6 °F 17.6 °F 80% 29.95 in 10.0 mi ESE 13.8 mph - N/A   Clear
10:35 PM 23.0 °F 10.6 °F 17.6 °F 80% 29.95 in 10.0 mi ESE 13.8 mph 18.4 mph N/A   Clear
10:55 PM 23.0 °F 10.6 °F 17.6 °F 80% 29.95 in 10.0 mi ESE 13.8 mph - N/A   Clear
11:15 PM 23.0 °F 12.4 °F 17.6 °F 80% 29.94 in 10.0 mi ESE 10.4 mph - N/A   Clear
11:35 PM 23.0 °F 11.1 °F 19.4 °F 86% 29.94 in 10.0 mi ESE 12.7 mph - N/A   Clear
11:55 PM 23.0 °F 12.4 °F 19.4 °F 86% 29.93 in 10.0 mi ESE 10.4 mph - N/A   Clear